Вернуться в каталог

STARLINK-36105

АктивенСвязьVLEO
NORAD 66850·PAYLOAD·🇺🇸 United States

Запущен Dec 2, 2025 с Cape Canaveral Space Force Station

Loading…

Ближайшие Пролёты (ближайшие 24 часа)

TLE

СвежийSource: CelesTrak SupGP

Эпоха: Sep 15, 2026, 03:34 UTC

1 66850C 25281C   26258.14909722  .00041419  00000+0  14998-2 0  2589
2 66850  43.0032 353.6611 0001495 265.5174 292.5730 15.27567586    14

Отслеживайте STARLINK-36105 в реальном времени с AllMySat

Download on the App Store